TimeEST,TemperatureF,Dew PointF,Humidity,Sea Level PressureIn,VisibilityMPH,Wind Direction,Wind SpeedMPH,Gust SpeedMPH,PrecipitationIn,Events,Conditions,WindDirDegrees,DateUTC
12:51 AM,28.9,23.0,78,30.27,8.0,South,5.8,-,N/A,,Mostly Cloudy,190,2013-01-08 05:51:00
1:51 AM,28.0,21.9,78,30.27,8.0,South,9.2,-,N/A,,Mostly Cloudy,180,2013-01-08 06:51:00
2:51 AM,28.0,21.9,78,30.27,8.0,South,8.1,-,N/A,,Mostly Cloudy,190,2013-01-08 07:51:00
3:51 AM,28.0,21.9,78,30.27,8.0,South,9.2,-,N/A,,Mostly Cloudy,190,2013-01-08 08:51:00
4:51 AM,28.9,21.9,75,30.27,9.0,SSW,11.5,-,N/A,,Mostly Cloudy,200,2013-01-08 09:51:00
5:51 AM,28.9,21.9,75,30.28,10.0,SSW,9.2,-,N/A,,Mostly Cloudy,210,2013-01-08 10:51:00
6:51 AM,28.9,21.9,75,30.29,10.0,South,8.1,-,N/A,,Mostly Cloudy,190,2013-01-08 11:51:00
7:51 AM,28.9,21.9,75,30.31,9.0,SSW,6.9,-,N/A,,Mostly Cloudy,200,2013-01-08 12:51:00
8:51 AM,28.9,21.9,75,30.32,8.0,South,8.1,-,N/A,,Mostly Cloudy,190,2013-01-08 13:51:00
9:51 AM,30.9,23.0,72,30.33,9.0,SSW,8.1,-,N/A,,Mostly Cloudy,200,2013-01-08 14:51:00
10:51 AM,33.8,23.0,65,30.30,10.0,SSW,9.2,-,N/A,,Mostly Cloudy,200,2013-01-08 15:51:00
11:51 AM,36.0,24.1,62,30.32,10.0,SSW,9.2,-,N/A,,Mostly Cloudy,210,2013-01-08 16:51:00
12:51 PM,37.9,23.0,55,30.30,10.0,SSW,15.0,-,N/A,,Mostly Cloudy,200,2013-01-08 17:51:00
1:51 PM,39.0,23.0,53,30.30,10.0,SW,8.1,-,N/A,,Mostly Cloudy,220,2013-01-08 18:51:00
2:51 PM,39.9,25.0,55,30.31,10.0,South,8.1,-,N/A,,Mostly Cloudy,190,2013-01-08 19:51:00
3:51 PM,41.0,23.0,49,30.31,10.0,SSW,10.4,-,N/A,,Mostly Cloudy,200,2013-01-08 20:51:00
4:51 PM,39.9,24.1,53,30.32,10.0,South,9.2,-,N/A,,Overcast,190,2013-01-08 21:51:00
5:51 PM,37.9,27.0,65,30.32,10.0,South,8.1,-,N/A,,Mostly Cloudy,170,2013-01-08 22:51:00
6:51 PM,36.0,27.0,70,30.32,10.0,South,6.9,-,N/A,,Mostly Cloudy,170,2013-01-08 23:51:00
7:51 PM,35.1,27.0,72,30.33,10.0,South,4.6,-,N/A,,Mostly Cloudy,190,2013-01-09 00:51:00
8:51 PM,32.0,26.1,79,30.32,8.0,South,6.9,-,N/A,,Mostly Cloudy,170,2013-01-09 01:51:00
9:51 PM,34.0,27.0,75,30.30,10.0,SSE,9.2,-,N/A,,Mostly Cloudy,160,2013-01-09 02:51:00
10:51 PM,34.0,27.0,75,30.28,10.0,SSE,8.1,-,N/A,,Scattered Clouds,160,2013-01-09 03:51:00
11:51 PM,33.1,27.0,78,30.27,10.0,SSE,8.1,-,N/A,,Scattered Clouds,160,2013-01-09 04:51:00